Terug naar catalogus

GALILEO 7 (263)

ActiefNavigatieMEO
NORAD 40544·PAYLOAD·🇪🇺 EU

Gelanceerd Mar 27, 2015 vanaf Guiana Space Centre

Loading…

Volgende Passages (komende 24 uur)

TLE

VersSource: CelesTrak SupGP

Epoch: Sep 13, 2026, 23:59 UTC

1 40544C 15017A   26256.99979167  .00000000  00000+0  00000+0 0  2563
2 40544  56.7504 339.1749 0004731 253.7725 236.9446  1.70476636    13

Volg GALILEO 7 (263) in realtime met AllMySat

Download on the App Store